Home   Weather   Sandpoint   Past weeks

Flag for USA Past Weather in Sandpoint, Idaho, USA — Yesterday and Last 2 Weeks

Now
32 °F

Chilly.


Feels Like: 27 °F
Forecast: 30 / 37 °F
Wind: 5 mph from Northeast

Location: Sandpoint Airport

Current Time: Jan 22, 2017 at 4:37:33 am

Latest Report: Jan 22, 2017 at 3:55 am


Visibility: N/A

Pressure: 29.77 "Hg (27.49 "Hg at 636m altitude)

Humidity: 100%

Dew Point: 32 °F

Location of SandpointLocation

Past Weather in Sandpoint — Graph

°F

Sandpoint Temperature Yesterday

Maximum temperature yesterday: 36 °F (at 12:35 am)
Minimum temperature yesterday: 32 °F (at 4:55 am)
Average temperature yesterday: 33 °F

High & Low Weather Summary for the Past Weeks

 TemperatureHumidityPressure
High41 °F (Jan 20, 12:55 pm)100% (Jan 8, 4:55 pm)30.58 "Hg (Jan 8, 4:55 pm)
Low-6 °F (Jan 11, 10:55 pm)49% (Jan 11, 1:55 pm)29.27 "Hg (Jan 20, 7:35 pm)
Average22 °F87%29.93 "Hg
* Reported Jan 7 3:15 am — Jan 22 3:35 am, Sandpoint, Weather by CustomWeather, © 2017

Note: Actual official high and low records may vary slightly from our data, if they occured in-between our weather recording intervals... More about our weather records

Advertising

Sandpoint Weather History for the Previous 24 Hours

Scroll right to see more
 ConditionsComfort  
Time TempWeatherWind HumidityBarometerVisibility
3:35 am
Sun, Jan 22
32 °FChilly.6 mph100%29.76 "HgN/A
3:15 am32 °FChilly.6 mph100%29.76 "HgN/A
2:55 am32 °FChilly.5 mph100%29.76 "HgN/A
2:35 am32 °FChilly.7 mph100%29.78 "HgN/A
2:15 am32 °FChilly.10 mph100%29.77 "HgN/A
1:55 am32 °FChilly.5 mph100%29.77 "HgN/A
1:35 am34 °FMostly cloudy.No wind93%29.76 "HgN/A
1:15 am32 °FChilly.7 mph100%29.76 "HgN/A
12:55 am32 °FChilly.6 mph100%29.75 "HgN/A
12:35 am32 °FChilly.No wind100%29.76 "HgN/A
12:15 am32 °FChilly.No wind100%29.75 "HgN/A
11:55 pm
Sat, Jan 21
34 °FChilly.5 mph93%29.74 "HgN/A
11:35 pm32 °FMostly cloudy.7 mph100%29.74 "HgN/A
11:15 pm32 °FOvercast.6 mph100%29.74 "HgN/A
10:55 pm32 °FOvercast.No wind100%29.74 "HgN/A
10:35 pm32 °FMostly cloudy.3 mph100%29.73 "HgN/A
10:15 pm32 °FChilly.No wind100%29.73 "HgN/A
9:55 pm32 °FChilly.No wind100%29.72 "HgN/A
9:35 pm32 °FChilly.No wind100%29.72 "HgN/A
9:15 pm32 °FChilly.No wind100%29.71 "HgN/A
8:55 pm32 °FChilly.No wind100%29.71 "HgN/A
8:35 pm32 °FChilly.5 mph100%29.71 "HgN/A
8:15 pm32 °FMostly cloudy.5 mph100%29.70 "HgN/A
7:55 pm32 °FPassing clouds.3 mph100%29.70 "HgN/A
7:35 pm32 °FChilly.3 mph100%29.69 "HgN/A
7:15 pm32 °FChilly.No wind100%29.69 "HgN/A
6:55 pm32 °FChilly.No wind100%29.68 "HgN/A
6:35 pm32 °FOvercast.No wind100%29.67 "HgN/A
6:15 pm32 °FMostly cloudy.No wind100%29.66 "Hg10 mi
5:55 pm32 °FMostly cloudy.No wind100%29.66 "Hg10 mi
5:35 pm32 °FMostly cloudy.No wind100%29.65 "Hg10 mi
5:15 pm34 °FOvercast.No wind93%29.64 "Hg10 mi
4:55 pm32 °FOvercast.No wind100%29.64 "Hg10 mi
4:35 pm32 °FOvercast.No wind100%29.63 "Hg10 mi
4:15 pm34 °FOvercast.No wind93%29.62 "HgN/A
3:35 pm34 °FChilly.No wind93%29.61 "HgN/A
3:15 pm34 °FMore clouds than sun.6 mph93%29.60 "Hg10 mi
2:55 pm32 °FMore clouds than sun.8 mph100%29.59 "Hg10 mi
2:35 pm32 °FMore clouds than sun.7 mph100%29.58 "Hg10 mi
1:55 pm32 °FCloudy.5 mph100%29.56 "Hg10 mi
1:35 pm32 °FScattered clouds.3 mph100%29.55 "Hg10 mi
1:15 pm32 °FLight snow. Scattered clouds.5 mph100%29.55 "Hg5 mi
12:55 pm32 °FLight snow. Cloudy.6 mph100%29.54 "HgN/A
12:35 pm32 °FChilly.7 mph100%29.53 "HgN/A
12:15 pm32 °FChilly.9 mph100%29.53 "HgN/A
11:55 am32 °FLight snow. Sunny.8 mph100%29.52 "Hg5 mi
11:35 am34 °FLight snow. Sunny.7 mph93%29.51 "Hg3 mi
11:15 am34 °FLight snow. Sunny.5 mph93%29.51 "Hg4 mi
10:55 am34 °FChilly.5 mph93%29.50 "HgN/A
10:35 am34 °FChilly.3 mph93%29.50 "HgN/A
10:15 am34 °FChilly.5 mph93%29.49 "HgN/A
9:55 am34 °FChilly.6 mph87%29.48 "HgN/A
9:35 am34 °FSunny.6 mph87%29.47 "HgN/A
9:15 am34 °FSunny.7 mph87%29.45 "HgN/A
8:55 am34 °FSunny.9 mph87%29.43 "Hg10 mi
8:35 am32 °FChilly.9 mph93%29.43 "HgN/A
8:15 am34 °FOvercast.10 mph87%29.42 "HgN/A
7:55 am32 °FOvercast.9 mph93%29.41 "HgN/A
7:35 am32 °FOvercast.7 mph93%29.40 "HgN/A
7:15 am32 °FChilly.9 mph93%29.39 "HgN/A
6:55 am32 °FChilly.7 mph93%29.38 "HgN/A
6:35 am32 °FChilly.8 mph93%29.38 "HgN/A
6:15 am32 °FChilly.9 mph93%29.37 "HgN/A
5:55 am32 °FChilly.5 mph93%29.36 "HgN/A
5:35 am32 °FChilly.7 mph93%29.36 "HgN/A
5:15 am32 °FChilly.8 mph93%29.35 "HgN/A
4:55 am32 °FChilly.7 mph93%29.34 "HgN/A
4:35 am34 °FClear.9 mph87%29.34 "HgN/A
4:15 am34 °FChilly.10 mph87%29.33 "HgN/A
Weather by CustomWeather, © 2017

See weather overviewHow to use our weather pages